Regional Weather Roundup
Issued by NWS

Home | Current Version | Previous Version | Text Only | Print | Product List | Glossary On
Versions: 1 2 3 4 5 6 7 8 9 10 11 12 13 14 15 16 17 18 19 20 21 22 23 24 25 26 27 28 29 30 31 32 33 34 35 36 37 38 39 40 41 42 43 44 45 46 47 48 49 50
000
ASUS43 KDTX 200101
RWRMI
MICHIGAN HOURLY REGIONAL WEATHER ROUNDUP
NATIONAL WEATHER SERVICE DETROIT/PONTIAC MI
900 PM EDT TUE SEP 19 2017

NOTE: "FAIR" INDICATES FEW OR NO CLOUDS BELOW 12,000 FEET WITH NO
SIGNIFICANT WEATHER AND/OR OBSTRUCTION TO VISIBILITY.

MIZ047>049-052>055-059>063-066>070-074>076-081>083-200200-
SOUTHEAST LOWER MICHIGAN

CITY           SKY/WX    TMP DP  RH WIND       PRES   REMARKS
ADRIAN         CLOUDY    68  67  96 E6        29.96R FOG
ALMA           CLOUDY    65  62  89 N9        29.98R
ANN ARBOR      CLOUDY    69  67  93 CALM      29.96R
BAD AXE        CLOUDY    67  64  93 CALM      30.00S FOG
CARO           CLOUDY    67  64  90 NE5       29.98R FOG
DETROIT CITY   CLOUDY    69  68  96 E3        29.97R FOG
DETROIT        CLOUDY    69  67  93 E5        29.96R
FLINT          CLOUDY    69  65  86 NE10      29.97R
GROSSE ILE     MOCLDY    68  66  94 CALM      29.96R
HILLSDALE      CLOUDY    63  61  94 NE3       29.96R FOG
HOWELL         DRIZZLE   67  65  93 CALM      29.97R

CITY           SKY/WX    TMP DP  RH WIND       PRES   REMARKS
JACKSON        CLOUDY    69  66  90 E6        29.95R
LAMBERTVILLE   PTCLDY    70  67  91 E3        29.94S FOG
LANSING        LGT RAIN  67  64  90 E7        29.97R FOG
LAPEER         CLOUDY    68  66  94 NE3       29.99R
MASON          CLOUDY    69  65  88 E3        29.96R
MONROE         CLOUDY    69  66  92 E3        29.95R FOG
MT. CLEMENS    CLOUDY    69  69 100 NE3       29.96R FOG
PONTIAC        CLOUDY    69  67  93 E5        29.97R
PORT HOPE        N/A     67  65  93 E7        29.99R
PORT HURON     CLOUDY    68  66  94 CALM      29.99R FOG
TRI CITIES     CLOUDY    67  66  97 NE12      29.99S
MIDLAND        CLOUDY    66  64  93 NE8       29.99S
TROY           CLOUDY    69  67  94 NE3       29.99R FOG
SAGINAW HB     CLOUDY    64  63  94 NE6       29.98R
$$
MIZ043>046-050>051-056>058-064>065-071>073-077>080-200200-
SOUTHWEST LOWER MICHIGAN

CITY           SKY/WX    TMP DP  RH WIND       PRES   REMARKS
BATTLE CREEK   LGT RAIN  68  66  93 NE7       29.95R FOG
BENTON HARBOR  MOCLDY    67  63  87 CALM      29.92S
BIG RAPIDS     MOCLDY    65  59  81 S6        29.97S
COLDWATER      CLOUDY    68  68 100 NE3       29.94S FOG
FREMONT        FAIR      67  62  84 E3        29.95S
HOLLAND        CLOUDY    69  60  73 E5        29.95R
GRAND RAPIDS   CLOUDY    68  62  81 NE7       29.95R
IONIA          MOCLDY    66  62  86 NE6       29.95R
KALAMAZOO      CLOUDY    69  64  84 NE3       29.94S HAZE
LUDINGTON      CLEAR     61  55  82 CALM      29.94S
MARSHALL       CLOUDY    67  67  98 CALM      29.94S
MOUNT PLEASANT PTCLDY    66  64  93 E3        29.98S
MUSKEGON       CLEAR     68  61  78 E7        29.94S
SOUTH HAVEN    CLEAR     65  64  93 CALM      29.93S
$$
MIZ016>042-200200-
NORTHERN LOWER MICHIGAN

CITY           SKY/WX    TMP DP  RH WIND       PRES   REMARKS
ALPENA         CLOUDY    65  62  90 E8        30.03R
BEAVER ISLAND  CLEAR     63  58  86 E9        29.99S
BELLAIRE       CLEAR     65  55  69 E3        29.97S
CADILLAC       CLOUDY    67  58  73 E7        29.98S
CHARLEVOIX     CLEAR     65  59  79 E7        30.00S
FRANKFORT      CLEAR     60  59  96 CALM      29.95R
GAYLORD        CLEAR     61  54  77 E5        30.01R
GRAYLING       PTCLDY    60  54  79 NE7       30.01S
HARBOR SPRINGS CLEAR     62  57  85 E9        29.99S
HOUGHTON LAKE  CLOUDY    63  59  87 CALM      30.01R
MANISTEE       CLEAR     58  55  90 CALM      29.94R
OSCODA         CLOUDY    65  63  93 N3        30.01R
PELLSTON       CLEAR     62  56  80 E7        30.01S
ROGERS CITY    CLEAR     61  58  91 SE5       30.04R
TRAVERSE CITY  PTCLDY    63  57  81 CALM      29.95R
$$
MIZ007>008-015-200200-
EASTERN UPPER MICHIGAN

CITY           SKY/WX    TMP DP  RH WIND       PRES   REMARKS
KINROSS        CLEAR     59  51  75 SE5       30.03R
MACKINAC ISLAN CLEAR     62  57  85 E7        30.01S
NEWBERRY       CLEAR     57  52  84 SE5       30.01R
S. S. MARIE    CLEAR     61  54  77 E5        30.02R
MUNISING         N/A     60  56  86 S5        29.98R
$$
MIZ004>006-011>014-085-200200-
CENTRAL UPPER MICHIGAN

CITY           SKY/WX    TMP DP  RH WIND       PRES   REMARKS
MANISTIQUE     CLEAR     57  52  81 E6        29.99R
ESCANABA       CLEAR     62  58  86 E6        29.96F
MENOMINEE      CLEAR     64  55  72 E8        29.95F
SAWYER-GWINN   CLEAR     63  52  67 SE5       29.99R
$$
MIZ001>003-009>011-084-200200-
WESTERN UPPER MICHIGAN

CITY           SKY/WX    TMP DP  RH WIND       PRES   REMARKS
IRON MOUNTAIN  CLEAR     63  53  70 E5        29.95S
HOUGHTON       CLEAR     59  53  80 E9        29.93S
COPPER HARBOR    N/A     64  53  67 S12G18    29.94R
IRONWOOD       CLEAR     67  58  72 SE8       29.88S
$$

ABBREVIATIONS USED IN REMARKS
   TC - TEMPERATURE IN CELSIUS
  WCI - WIND CHILL INDEX
   HX - HEAT INDEX
  VSB - VISIBILITY





USA.gov is the U.S. government's official web portal to all federal, state and local government web resources and services.